| time (UTC) | temp F | wind direction | speed knots | gust knots | rain 1hr in | rain 24hr in | rain mn in | humidity % | barometer mb |
| 20260901112059 | 61 | 0 | 0.0 | 1.7 | 0.00 | 0.00 | 0.00 | 91 | 1013.3 |
| 20260901111608 | 61 | 0 | 0.0 | 1.7 | 0.00 | 0.00 | 0.00 | 91 | 1013.3 |
| 20260901111054 | 62 | 0 | 0.0 | 1.7 | 0.00 | 0.00 | 0.00 | 91 | 1013.2 |
| 20260901110554 | 62 | 0 | 0.0 | 0.0 | 0.00 | 0.00 | 0.00 | 92 | 1013.3 |
| 20260901110103 | 62 | 0 | 0.0 | 0.0 | 0.00 | 0.00 | 0.00 | 92 | 1013.3 |
| 20260901105555 | 61 | 0 | 0.0 | 0.0 | 0.00 | 0.00 | 0.00 | 91 | 1013.4 |
| 20260901105055 | 62 | 0 | 0.0 | 0.0 | 0.00 | 0.00 | 0.00 | 91 | 1013.3 |
| 20260901104605 | 62 | 0 | 0.0 | 0.0 | 0.00 | 0.00 | 0.00 | 91 | 1013.3 |
| 20260901104055 | 62 | 0 | 0.0 | 0.0 | 0.00 | 0.00 | 0.00 | 91 | 1013.4 |
| 20260901103554 | 62 | 0 | 0.0 | 0.0 | 0.00 | 0.00 | 0.00 | 91 | 1013.5 |
| 20260901103101 | 62 | 0 | 0.0 | 0.0 | 0.00 | 0.00 | 0.00 | 91 | 1013.5 |
| 20260901102555 | 62 | 0 | 0.0 | 0.9 | 0.00 | 0.00 | 0.00 | 92 | 1013.5 |
| 20260901102055 | 62 | 0 | 0.0 | 0.9 | 0.00 | 0.00 | 0.00 | 92 | 1013.5 |
| 20260901101607 | 62 | 0 | 0.0 | 1.7 | 0.00 | 0.00 | 0.00 | 92 | 1013.5 |
| 20260901101054 | 62 | 0 | 0.0 | 1.7 | 0.00 | 0.00 | 0.00 | 91 | 1013.5 |
| 20260901100554 | 62 | 0 | 0.0 | 1.7 | 0.00 | 0.00 | 0.00 | 91 | 1013.5 |
| 20260901100107 | 62 | 0 | 0.0 | 1.7 | 0.00 | 0.00 | 0.00 | 91 | 1013.5 |
| 20260901095555 | 62 | 0 | 0.0 | 2.6 | 0.00 | 0.00 | 0.00 | 91 | 1013.7 |
| 20260901095055 | 62 | 0 | 0.0 | 2.6 | 0.00 | 0.00 | 0.00 | 91 | 1013.6 |
| 20260901094558 | 62 | 0 | 0.9 | 2.6 | 0.00 | 0.00 | 0.00 | 91 | 1013.6 |
| 20260901094056 | 62 | 0 | 0.0 | 0.0 | 0.00 | 0.00 | 0.00 | 91 | 1013.6 |
| 20260901093555 | 62 | 0 | 0.0 | 0.0 | 0.00 | 0.00 | 0.00 | 91 | 1013.5 |
| 20260901093103 | 62 | 0 | 0.0 | 1.7 | 0.00 | 0.00 | 0.00 | 91 | 1013.4 |
| 20260901092555 | 62 | 0 | 0.0 | 1.7 | 0.00 | 0.00 | 0.00 | 91 | 1013.4 |
| 20260901092055 | 62 | 0 | 0.0 | 0.0 | 0.00 | 0.00 | 0.00 | 91 | 1013.4 |
| 20260901091556 | 62 | 0 | 0.0 | 0.9 | 0.00 | 0.00 | 0.00 | 90 | 1013.4 |
| 20260901091056 | 62 | 0 | 0.0 | 0.9 | 0.00 | 0.00 | 0.00 | 90 | 1013.4 |
| 20260901090554 | 62 | 0 | 0.0 | 2.6 | 0.00 | 0.00 | 0.00 | 90 | 1013.5 |
| 20260901090107 | 62 | 0 | 0.0 | 2.6 | 0.00 | 0.00 | 0.00 | 90 | 1013.5 |
| 20260901085554 | 62 | 0 | 0.0 | 0.0 | 0.00 | 0.00 | 0.00 | 90 | 1013.6 |
| 20260901085055 | 63 | 0 | 0.0 | 0.0 | 0.00 | 0.00 | 0.00 | 90 | 1013.6 |
| 20260901084627 | 63 | 0 | 0.0 | 0.0 | 0.00 | 0.00 | 0.00 | 90 | 1013.6 |
| 20260901084055 | 63 | 0 | 0.0 | 0.0 | 0.00 | 0.00 | 0.00 | 90 | 1013.5 |
| 20260901083555 | 63 | 0 | 0.0 | 0.0 | 0.00 | 0.00 | 0.00 | 90 | 1013.5 |
| 20260901083059 | 63 | 0 | 0.0 | 0.0 | 0.00 | 0.00 | 0.00 | 90 | 1013.5 |
| 20260901082554 | 63 | 0 | 0.0 | 0.0 | 0.00 | 0.00 | 0.00 | 90 | 1013.5 |
| 20260901082054 | 63 | 0 | 0.0 | 2.6 | 0.00 | 0.00 | 0.00 | 90 | 1013.6 |
| 20260901081556 | 63 | 0 | 0.0 | 2.6 | 0.00 | 0.00 | 0.00 | 90 | 1013.5 |
| 20260901081054 | 63 | 342 | 0.0 | 2.6 | 0.00 | 0.00 | 0.00 | 90 | 1013.5 |
| 20260901080554 | 63 | 0 | 0.0 | 0.0 | 0.00 | 0.00 | 0.00 | 90 | 1013.6 |
| 20260901080111 | 63 | 0 | 0.0 | 0.0 | 0.00 | 0.00 | 0.00 | 90 | 1013.6 |
| 20260901075555 | 63 | 0 | 0.0 | 0.0 | 0.00 | 0.00 | 0.00 | 89 | 1013.6 |
| 20260901075057 | 63 | 0 | 0.0 | 0.0 | 0.00 | 0.00 | 0.00 | 89 | 1013.7 |
| 20260901074628 | 63 | 0 | 0.0 | 0.0 | 0.00 | 0.00 | 0.00 | 89 | 1013.7 |
| 20260901074056 | 63 | 0 | 0.0 | 0.0 | 0.00 | 0.00 | 0.00 | 89 | 1013.8 |
| 20260901073556 | 63 | 0 | 0.0 | 0.0 | 0.00 | 0.00 | 0.00 | 89 | 1013.8 |
| 20260901073101 | 64 | 0 | 0.0 | 0.0 | 0.00 | 0.00 | 0.00 | 89 | 1013.9 |
| 20260901072558 | 64 | 0 | 0.0 | 0.0 | 0.00 | 0.00 | 0.00 | 89 | 1013.9 |
| 20260901072055 | 64 | 0 | 0.0 | 0.0 | 0.00 | 0.00 | 0.00 | 89 | 1013.8 |
| 20260901071608 | 64 | 0 | 0.0 | 0.0 | 0.00 | 0.00 | 0.00 | 89 | 1013.8 |
| 20260901071054 | 64 | 0 | 0.0 | 0.0 | 0.00 | 0.00 | 0.00 | 89 | 1013.8 |
| 20260901070555 | 64 | 0 | 0.0 | 0.0 | 0.00 | 0.00 | 0.00 | 89 | 1013.7 |
| 20260901070058 | 64 | 0 | 0.0 | 0.0 | 0.00 | 0.00 | 0.00 | 89 | 1013.7 |
| 20260901065555 | 64 | 0 | 0.0 | 0.0 | 0.00 | 0.00 | 0.00 | 88 | 1013.5 |
| 20260901065055 | 64 | 0 | 0.0 | 0.0 | 0.00 | 0.00 | 0.00 | 89 | 1013.5 |
| 20260901064559 | 64 | 0 | 0.0 | 0.0 | 0.00 | 0.00 | 0.00 | 89 | 1013.4 |
| 20260901064059 | 64 | 0 | 0.0 | 0.0 | 0.00 | 0.00 | 0.00 | 89 | 1013.4 |
| 20260901063554 | 64 | 0 | 0.0 | 0.0 | 0.00 | 0.00 | 0.00 | 89 | 1013.3 |
| 20260901063105 | 64 | 0 | 0.0 | 0.0 | 0.00 | 0.00 | 0.00 | 88 | 1013.2 |
| 20260901062556 | 64 | 0 | 0.0 | 0.0 | 0.00 | 0.00 | 0.00 | 88 | 1013.2 |
| 20260901062056 | 64 | 0 | 0.0 | 0.0 | 0.00 | 0.00 | 0.00 | 88 | 1013.2 |
| 20260901061611 | 65 | 0 | 0.0 | 0.0 | 0.00 | 0.00 | 0.00 | 88 | 1013.2 |
| 20260901061056 | 65 | 0 | 0.0 | 0.0 | 0.00 | 0.00 | 0.00 | 88 | 1013.2 |
| 20260901060556 | 65 | 0 | 0.0 | 0.0 | 0.00 | 0.00 | 0.00 | 88 | 1013.1 |
| 20260901060103 | 65 | 0 | 0.0 | 0.0 | 0.00 | 0.00 | 0.00 | 88 | 1013.0 |
| 20260901055555 | 65 | 0 | 0.0 | 0.0 | 0.00 | 0.00 | 0.00 | 88 | 1013.0 |
| 20260901055055 | 65 | 0 | 0.0 | 0.0 | 0.00 | 0.00 | 0.00 | 87 | 1013.1 |
| 20260901054604 | 65 | 0 | 0.0 | 0.9 | 0.00 | 0.00 | 0.00 | 87 | 1013.1 |
| 20260901054058 | 65 | 0 | 0.0 | 2.6 | 0.00 | 0.00 | 0.00 | 87 | 1013.1 |
| 20260901053556 | 65 | 0 | 0.0 | 2.6 | 0.00 | 0.00 | 0.00 | 87 | 1013.1 |
| 20260901053107 | 65 | 344 | 0.0 | 1.7 | 0.00 | 0.00 | 0.00 | 87 | 1013.0 |
| 20260901052555 | 65 | 324 | 0.0 | 2.6 | 0.00 | 0.00 | 0.00 | 87 | 1012.9 |
| 20260901052055 | 66 | 0 | 0.0 | 2.6 | 0.00 | 0.00 | 0.00 | 87 | 1012.9 |
| 20260901051612 | 66 | 0 | 0.0 | 1.7 | 0.00 | 0.00 | 0.00 | 86 | 1012.9 |
| 20260901051055 | 66 | 0 | 0.0 | 2.6 | 0.00 | 0.00 | 0.00 | 86 | 1013.1 |
| 20260901050555 | 66 | 243 | 0.0 | 3.5 | 0.00 | 0.00 | 0.00 | 86 | 1012.9 |
| 20260901050104 | 66 | 140 | 0.9 | 3.5 | 0.00 | 0.00 | 0.00 | 87 | 1012.9 |
| 20260901045555 | 66 | 0 | 0.0 | 4.3 | 0.00 | 0.00 | 0.00 | 86 | 1012.8 |
| 20260901045054 | 66 | 0 | 0.0 | 4.3 | 0.00 | 0.00 | 0.00 | 87 | 1012.8 |
| 20260901044604 | 66 | 175 | 0.0 | 2.6 | 0.00 | 0.00 | 0.00 | 87 | 1012.7 |
| 20260901044055 | 66 | 0 | 0.0 | 0.9 | 0.00 | 0.00 | 0.00 | 86 | 1012.7 |
| 20260901043555 | 66 | 0 | 0.0 | 1.7 | 0.00 | 0.00 | 0.00 | 86 | 1012.6 |
| 20260901043056 | 66 | 0 | 0.0 | 1.7 | 0.00 | 0.00 | 0.00 | 87 | 1012.5 |
| 20260901042555 | 66 | 0 | 0.0 | 0.0 | 0.00 | 0.00 | 0.00 | 87 | 1012.5 |
| 20260901042054 | 66 | 0 | 0.0 | 0.0 | 0.00 | 0.00 | 0.00 | 87 | 1012.5 |
| 20260901041619 | 66 | 0 | 0.0 | 0.0 | 0.00 | 0.00 | 0.00 | 86 | 1012.4 |
| 20260901041057 | 66 | 0 | 0.0 | 0.0 | 0.00 | 0.00 | 0.00 | 86 | 1012.2 |
| 20260901040555 | 67 | 0 | 0.0 | 0.0 | 0.00 | 0.00 | 0.00 | 86 | 1012.1 |
| 20260901040137 | 67 | 0 | 0.0 | 0.0 | 0.00 | 0.00 | 0.00 | 86 | 1012.1 |
| 20260901035556 | 67 | 0 | 0.0 | 0.0 | 0.00 | 0.00 | 0.00 | 86 | 1012.2 |
| 20260901035054 | 67 | 0 | 0.0 | 1.7 | 0.00 | 0.00 | 0.00 | 86 | 1012.1 |
| 20260901034559 | 67 | 0 | 0.0 | 2.6 | 0.00 | 0.00 | 0.00 | 86 | 1012.0 |
| 20260901034058 | 67 | 0 | 0.9 | 2.6 | 0.00 | 0.00 | 0.00 | 86 | 1011.9 |
| 20260901033554 | 67 | 0 | 0.9 | 2.6 | 0.00 | 0.00 | 0.00 | 86 | 1012.0 |
| 20260901033059 | 67 | 0 | 0.0 | 1.7 | 0.00 | 0.00 | 0.00 | 86 | 1011.8 |
| 20260901032556 | 67 | 0 | 0.0 | 1.7 | 0.00 | 0.00 | 0.00 | 86 | 1011.8 |
| 20260901032053 | 67 | 0 | 0.0 | 0.0 | 0.00 | 0.00 | 0.00 | 86 | 1011.7 |
| 20260901031602 | 67 | 0 | 0.0 | 1.7 | 0.00 | 0.00 | 0.00 | 85 | 1011.7 |
| 20260901031056 | 67 | 0 | 0.0 | 2.6 | 0.00 | 0.00 | 0.00 | 85 | 1011.8 |
| 20260901030555 | 67 | 0 | 0.9 | 5.2 | 0.00 | 0.00 | 0.00 | 85 | 1011.7 |
| 20260901030106 | 67 | 0 | 0.0 | 5.2 | 0.00 | 0.00 | 0.00 | 85 | 1011.7 |
| 20260901025552 | 67 | 254 | 2.6 | 5.2 | 0.00 | 0.00 | 0.00 | 85 | 1011.7 |
| 20260901025056 | 68 | 277 | 0.9 | 5.2 | 0.00 | 0.00 | 0.00 | 85 | 1011.5 |
| 20260901024606 | 68 | 207 | 2.6 | 6.1 | 0.00 | 0.00 | 0.00 | 85 | 1011.6 |
| 20260901024052 | 68 | 0 | 1.7 | 8.7 | 0.00 | 0.00 | 0.00 | 84 | 1011.4 |
| 20260901023553 | 68 | 254 | 4.3 | 8.7 | 0.00 | 0.00 | 0.00 | 84 | 1011.4 |
| 20260901023103 | 68 | 296 | 2.6 | 9.6 | 0.00 | 0.00 | 0.00 | 84 | 1011.4 |
| 20260901022552 | 68 | 309 | 2.6 | 9.6 | 0.00 | 0.00 | 0.00 | 84 | 1011.5 |
| 20260901022052 | 69 | 289 | 2.6 | 7.8 | 0.00 | 0.00 | 0.00 | 83 | 1011.6 |
| 20260901021601 | 69 | 267 | 0.9 | 8.7 | 0.00 | 0.00 | 0.00 | 82 | 1011.6 |
| 20260901021052 | 69 | 303 | 2.6 | 9.6 | 0.00 | 0.00 | 0.00 | 82 | 1011.6 |
| 20260901020556 | 69 | 300 | 4.3 | 9.6 | 0.00 | 0.00 | 0.00 | 81 | 1011.6 |
| 20260901020101 | 70 | 216 | 4.3 | 9.6 | 0.00 | 0.00 | 0.00 | 81 | 1011.5 |
| 20260901015555 | 70 | 155 | 5.2 | 10.4 | 0.00 | 0.00 | 0.00 | 80 | 1011.5 |
| 20260901015055 | 70 | 287 | 3.5 | 10.4 | 0.00 | 0.00 | 0.00 | 81 | 1011.5 |
| 20260901014602 | 70 | 209 | 2.6 | 9.6 | 0.00 | 0.00 | 0.00 | 81 | 1011.6 |
| 20260901014055 | 70 | 269 | 3.5 | 8.7 | 0.00 | 0.00 | 0.00 | 80 | 1011.5 |
| 20260901013555 | 70 | 283 | 4.3 | 7.8 | 0.00 | 0.00 | 0.00 | 79 | 1011.5 |
| 20260901013101 | 71 | 0 | 4.3 | 9.6 | 0.00 | 0.00 | 0.00 | 78 | 1011.6 |
| 20260901012555 | 71 | 232 | 4.3 | 9.6 | 0.00 | 0.00 | 0.00 | 78 | 1011.5 |
| 20260901012055 | 72 | 279 | 4.3 | 9.6 | 0.00 | 0.00 | 0.00 | 76 | 1011.5 |
| 20260901011556 | 72 | 261 | 2.6 | 7.0 | 0.00 | 0.00 | 0.00 | 78 | 1011.6 |
| 20260901011055 | 72 | 177 | 2.6 | 8.7 | 0.00 | 0.00 | 0.00 | 78 | 1011.6 |
| 20260901010555 | 72 | 246 | 4.3 | 8.7 | 0.00 | 0.00 | 0.00 | 77 | 1011.7 |
| 20260901010113 | 72 | 161 | 3.5 | 7.8 | 0.00 | 0.00 | 0.00 | 76 | 1011.7 |
| 20260901005555 | 73 | 206 | 4.3 | 7.8 | 0.00 | 0.00 | 0.00 | 75 | 1011.7 |
| 20260901005055 | 73 | 209 | 3.5 | 8.7 | 0.00 | 0.00 | 0.00 | 75 | 1011.7 |
| 20260901004603 | 73 | 252 | 4.3 | 9.6 | 0.00 | 0.00 | 0.00 | 75 | 1011.7 |
| 20260901004054 | 73 | 261 | 3.5 | 9.6 | 0.00 | 0.00 | 0.00 | 75 | 1011.6 |
| 20260901003554 | 73 | 252 | 3.5 | 9.6 | 0.00 | 0.00 | 0.00 | 75 | 1011.6 |
| 20260901003059 | 73 | 253 | 3.5 | 9.6 | 0.00 | 0.00 | 0.00 | 75 | 1011.6 |
| 20260901002554 | 73 | 196 | 2.6 | 10.4 | 0.00 | 0.00 | 0.00 | 75 | 1011.6 |
| 20260901002056 | 73 | 255 | 3.5 | 10.4 | 0.00 | 0.00 | 0.00 | 74 | 1011.8 |
| 20260901001603 | 73 | 175 | 4.3 | 10.4 | 0.00 | 0.00 | 0.00 | 74 | 1011.7 |
| 20260901001058 | 73 | 272 | 3.5 | 10.4 | 0.00 | 0.00 | 0.00 | 75 | 1011.8 |
| 20260901000556 | 74 | 205 | 5.2 | 9.6 | 0.00 | 0.00 | 0.00 | 73 | 1011.9 |
| 20260901000113 | 74 | 196 | 3.5 | 10.4 | 0.00 | 0.00 | 0.00 | 74 | 1011.8 |
| 20260831235556 | 74 | 211 | 6.1 | 14.8 | 0.00 | 0.00 | 0.00 | 72 | 1011.8 |
| 20260831235056 | 74 | 247 | 6.1 | 14.8 | 0.00 | 0.00 | 0.00 | 71 | 1011.8 |
| 20260831234556 | 75 | 173 | 7.8 | 14.8 | 0.00 | 0.00 | 0.00 | 69 | 1011.8 |
| 20260831234056 | 75 | 228 | 6.1 | 12.2 | 0.00 | 0.00 | 0.00 | 68 | 1011.8 |
| 20260831233554 | 75 | 194 | 5.2 | 10.4 | 0.00 | 0.00 | 0.00 | 64 | 1011.7 |
| 20260831233111 | 75 | 252 | 5.2 | 11.3 | 0.00 | 0.00 | 0.00 | 66 | 1011.7 |
| 20260831232554 | 75 | 261 | 7.0 | 11.3 | 0.00 | 0.00 | 0.00 | 64 | 1011.6 |
| 20260831232054 | 76 | 294 | 5.2 | 11.3 | 0.00 | 0.00 | 0.00 | 68 | 1011.7 |
| 20260831231553 | 75 | 261 | 3.5 | 11.3 | 0.00 | 0.00 | 0.00 | 67 | 1011.6 |
| 20260831231056 | 75 | 200 | 6.1 | 11.3 | 0.00 | 0.00 | 0.00 | 65 | 1011.6 |
| 20260831230558 | 76 | 296 | 5.2 | 9.6 | 0.00 | 0.00 | 0.00 | 67 | 1011.8 |
| 20260831230115 | 76 | 161 | 4.3 | 11.3 | 0.00 | 0.00 | 0.00 | 64 | 1011.7 |
| 20260831225556 | 75 | 275 | 4.3 | 12.2 | 0.00 | 0.00 | 0.00 | 63 | 1011.7 |
| 20260831225053 | 76 | 200 | 7.0 | 12.2 | 0.00 | 0.00 | 0.00 | 62 | 1011.7 |
| 20260831224559 | 76 | 234 | 7.0 | 11.3 | 0.00 | 0.00 | 0.00 | 62 | 1011.8 |
| 20260831224052 | 76 | 203 | 5.2 | 10.4 | 0.00 | 0.00 | 0.00 | 58 | 1012.0 |
| 20260831223553 | 76 | 192 | 5.2 | 10.4 | 0.00 | 0.00 | 0.00 | 60 | 1011.9 |
| 20260831223109 | 76 | 222 | 4.3 | 9.6 | 0.00 | 0.00 | 0.00 | 60 | 1011.9 |
| 20260831222555 | 76 | 275 | 3.5 | 9.6 | 0.00 | 0.00 | 0.00 | 64 | 1011.9 |
| 20260831222052 | 76 | 247 | 4.3 | 11.3 | 0.00 | 0.00 | 0.00 | 66 | 1012.1 |
| 20260831221559 | 76 | 163 | 5.2 | 11.3 | 0.00 | 0.00 | 0.00 | 66 | 1012.1 |
| 20260831221052 | 76 | 298 | 6.1 | 11.3 | 0.00 | 0.00 | 0.00 | 66 | 1012.1 |
| 20260831220552 | 76 | 276 | 4.3 | 11.3 | 0.00 | 0.00 | 0.00 | 70 | 1012.2 |
| 20260831220104 | 76 | 272 | 6.1 | 13.0 | 0.00 | 0.00 | 0.00 | 71 | 1012.1 |
| 20260831215552 | 76 | 207 | 4.3 | 13.0 | 0.00 | 0.00 | 0.00 | 70 | 1012.2 |
| 20260831215052 | 76 | 209 | 6.1 | 13.0 | 0.00 | 0.00 | 0.00 | 72 | 1012.3 |
| 20260831214609 | 77 | 244 | 4.3 | 12.2 | 0.00 | 0.00 | 0.00 | 72 | 1012.3 |
| 20260831214052 | 77 | 116 | 3.5 | 11.3 | 0.00 | 0.00 | 0.00 | 74 | 1012.2 |
| 20260831213555 | 77 | 177 | 3.5 | 11.3 | 0.00 | 0.00 | 0.00 | 73 | 1012.4 |
| 20260831213101 | 77 | 209 | 4.3 | 11.3 | 0.00 | 0.00 | 0.00 | 73 | 1012.4 |
| 20260831212556 | 77 | 175 | 5.2 | 10.4 | 0.00 | 0.00 | 0.00 | 73 | 1012.5 |
| 20260831212059 | 77 | 201 | 3.5 | 8.7 | 0.00 | 0.00 | 0.00 | 73 | 1012.5 |
| 20260831211607 | 76 | 0 | 3.5 | 8.7 | 0.00 | 0.00 | 0.00 | 75 | 1012.5 |
| 20260831211056 | 76 | 196 | 3.5 | 8.7 | 0.00 | 0.00 | 0.00 | 74 | 1012.6 |
| 20260831210555 | 76 | 190 | 4.3 | 10.4 | 0.00 | 0.00 | 0.00 | 76 | 1012.6 |
| 20260831210057 | 76 | 291 | 4.3 | 10.4 | 0.00 | 0.00 | 0.00 | 75 | 1012.7 |
| 20260831205554 | 76 | 282 | 5.2 | 9.6 | 0.00 | 0.00 | 0.00 | 74 | 1012.7 |
| 20260831205056 | 76 | 307 | 3.5 | 12.2 | 0.00 | 0.00 | 0.00 | 74 | 1012.7 |
| 20260831204609 | 76 | 236 | 6.1 | 12.2 | 0.00 | 0.00 | 0.00 | 74 | 1012.7 |
| 20260831204057 | 76 | 263 | 5.2 | 10.4 | 0.00 | 0.00 | 0.00 | 75 | 1012.7 |
| 20260831203555 | 76 | 188 | 4.3 | 11.3 | 0.00 | 0.00 | 0.00 | 75 | 1012.7 |
| 20260831203116 | 76 | 214 | 5.2 | 12.2 | 0.00 | 0.00 | 0.00 | 75 | 1012.8 |
| 20260831202551 | 76 | 260 | 6.1 | 12.2 | 0.00 | 0.00 | 0.00 | 75 | 1012.8 |
| 20260831202054 | 76 | 222 | 3.5 | 10.4 | 0.00 | 0.00 | 0.00 | 73 | 1012.8 |
| 20260831201607 | 76 | 271 | 5.2 | 10.4 | 0.00 | 0.00 | 0.00 | 73 | 1012.8 |
| 20260831201057 | 76 | 180 | 4.3 | 10.4 | 0.00 | 0.00 | 0.00 | 73 | 1012.8 |
| 20260831200556 | 76 | 290 | 3.5 | 10.4 | 0.00 | 0.00 | 0.00 | 74 | 1012.9 |
| 20260831200111 | 76 | 300 | 4.3 | 10.4 | 0.00 | 0.00 | 0.00 | 74 | 1012.8 |
| 20260831195556 | 76 | 215 | 4.3 | 10.4 | 0.00 | 0.00 | 0.00 | 74 | 1012.9 |
| 20260831195055 | 76 | 130 | 3.5 | 9.6 | 0.00 | 0.00 | 0.00 | 74 | 1012.9 |
| 20260831194642 | 76 | 254 | 4.3 | 8.7 | 0.00 | 0.00 | 0.00 | 74 | 1012.9 |
| 20260831194052 | 76 | 311 | 3.5 | 8.7 | 0.00 | 0.00 | 0.00 | 75 | 1012.9 |
| 20260831193551 | 76 | 218 | 2.6 | 9.6 | 0.00 | 0.00 | 0.00 | 75 | 1013.2 |
| 20260831193100 | 76 | 253 | 3.5 | 9.6 | 0.00 | 0.00 | 0.00 | 75 | 1013.1 |
| 20260831192555 | 76 | 300 | 4.3 | 10.4 | 0.00 | 0.00 | 0.00 | 75 | 1013.1 |
| 20260831192055 | 76 | 261 | 3.5 | 10.4 | 0.00 | 0.00 | 0.00 | 76 | 1013.1 |
| 20260831191602 | 76 | 286 | 5.2 | 10.4 | 0.00 | 0.00 | 0.00 | 76 | 1013.1 |
| 20260831191058 | 76 | 304 | 3.5 | 9.6 | 0.00 | 0.00 | 0.00 | 75 | 1013.2 |
| 20260831190554 | 76 | 246 | 5.2 | 9.6 | 0.00 | 0.00 | 0.00 | 76 | 1013.2 |
| 20260831190109 | 76 | 141 | 2.6 | 8.7 | 0.00 | 0.00 | 0.00 | 77 | 1013.2 |
| 20260831185552 | 75 | 205 | 3.5 | 9.6 | 0.00 | 0.00 | 0.00 | 76 | 1013.2 |
| 20260831185051 | 76 | 148 | 4.3 | 9.6 | 0.00 | 0.00 | 0.00 | 75 | 1013.2 |
| 20260831184603 | 76 | 224 | 3.5 | 9.6 | 0.00 | 0.00 | 0.00 | 76 | 1013.2 |
| 20260831184055 | 76 | 282 | 2.6 | 9.6 | 0.00 | 0.00 | 0.00 | 76 | 1013.2 |
| 20260831183555 | 76 | 298 | 4.3 | 9.6 | 0.00 | 0.00 | 0.00 | 76 | 1013.2 |
| 20260831183107 | 76 | 188 | 3.5 | 9.6 | 0.00 | 0.00 | 0.00 | 75 | 1013.3 |
| 20260831182553 | 76 | 154 | 4.3 | 7.8 | 0.00 | 0.00 | 0.00 | 75 | 1013.2 |
| 20260831182058 | 75 | 203 | 0.9 | 8.7 | 0.00 | 0.00 | 0.00 | 76 | 1013.3 |
| 20260831181609 | 75 | 199 | 4.3 | 8.7 | 0.00 | 0.00 | 0.00 | 76 | 1013.3 |
| 20260831181055 | 75 | 174 | 1.7 | 8.7 | 0.00 | 0.00 | 0.00 | 76 | 1013.4 |
| 20260831180556 | 75 | 208 | 3.5 | 8.7 | 0.00 | 0.00 | 0.00 | 76 | 1013.4 |
| 20260831180111 | 75 | 225 | 2.6 | 8.7 | 0.00 | 0.00 | 0.00 | 77 | 1013.4 |
| 20260831175557 | 75 | 168 | 2.6 | 7.8 | 0.00 | 0.00 | 0.00 | 77 | 1013.3 |
| 20260831175054 | 75 | 184 | 2.6 | 9.6 | 0.00 | 0.00 | 0.00 | 76 | 1013.3 |
| 20260831174600 | 74 | 268 | 2.6 | 9.6 | 0.00 | 0.00 | 0.00 | 77 | 1013.3 |
| 20260831174055 | 74 | 183 | 2.6 | 8.7 | 0.00 | 0.00 | 0.00 | 77 | 1013.3 |
| 20260831173552 | 74 | 178 | 5.2 | 8.7 | 0.00 | 0.00 | 0.00 | 76 | 1013.3 |
| 20260831173055 | 75 | 300 | 2.6 | 8.7 | 0.00 | 0.00 | 0.00 | 76 | 1013.3 |
| 20260831172555 | 75 | 268 | 3.5 | 7.8 | 0.00 | 0.00 | 0.00 | 76 | 1013.3 |
| 20260831172055 | 76 | 221 | 3.5 | 7.8 | 0.00 | 0.00 | 0.00 | 74 | 1013.2 |
| 20260831171605 | 76 | 135 | 1.7 | 6.1 | 0.00 | 0.00 | 0.00 | 74 | 1013.2 |
| 20260831171052 | 75 | 244 | 1.7 | 6.1 | 0.00 | 0.00 | 0.00 | 75 | 1013.2 |
| 20260831170555 | 75 | 184 | 1.7 | 6.1 | 0.00 | 0.00 | 0.00 | 75 | 1013.1 |
| 20260831170101 | 74 | 0 | 0.0 | 7.0 | 0.00 | 0.00 | 0.00 | 76 | 1013.1 |
| 20260831165555 | 74 | 210 | 2.6 | 7.0 | 0.00 | 0.00 | 0.00 | 75 | 1013.1 |
| 20260831165051 | 75 | 197 | 2.6 | 6.1 | 0.00 | 0.00 | 0.00 | 75 | 1013.1 |
| 20260831164558 | 75 | 204 | 0.9 | 6.1 | 0.00 | 0.00 | 0.00 | 75 | 1013.0 |
| 20260831164054 | 75 | 125 | 2.6 | 6.1 | 0.00 | 0.00 | 0.00 | 74 | 1012.9 |
| 20260831163553 | 75 | 82 | 1.7 | 6.1 | 0.00 | 0.00 | 0.00 | 75 | 1012.9 |
| 20260831163056 | 75 | 196 | 0.9 | 5.2 | 0.00 | 0.00 | 0.00 | 75 | 1012.9 |
| 20260831162553 | 75 | 165 | 0.9 | 4.3 | 0.00 | 0.00 | 0.00 | 75 | 1012.9 |
| 20260831162052 | 74 | 271 | 1.7 | 4.3 | 0.00 | 0.00 | 0.00 | 75 | 1012.9 |
| 20260831161556 | 74 | 219 | 0.9 | 3.5 | 0.00 | 0.00 | 0.00 | 75 | 1012.9 |
| 20260831161053 | 74 | 190 | 0.0 | 3.5 | 0.00 | 0.00 | 0.00 | 76 | 1012.9 |
| 20260831160555 | 74 | 185 | 0.0 | 4.3 | 0.00 | 0.00 | 0.00 | 76 | 1012.9 |
| 20260831160103 | 74 | 44 | 0.9 | 4.3 | 0.00 | 0.00 | 0.00 | 76 | 1012.9 |
| 20260831155554 | 74 | 201 | 0.9 | 5.2 | 0.00 | 0.00 | 0.00 | 76 | 1012.9 |
| 20260831155052 | 73 | 103 | 0.9 | 5.2 | 0.00 | 0.00 | 0.00 | 77 | 1012.9 |
| 20260831154633 | 73 | 106 | 1.7 | 7.0 | 0.00 | 0.00 | 0.00 | 76 | 1012.8 |
| 20260831154056 | 73 | 69 | 0.0 | 7.0 | 0.00 | 0.00 | 0.00 | 77 | 1012.9 |
| 20260831153555 | 73 | 107 | 0.0 | 4.3 | 0.00 | 0.00 | 0.00 | 76 | 1012.8 |
| 20260831153118 | 73 | 0 | 1.7 | 4.3 | 0.00 | 0.00 | 0.00 | 76 | 1012.7 |
| 20260831152555 | 73 | 84 | 0.0 | 3.5 | 0.00 | 0.00 | 0.00 | 76 | 1012.7 |
| 20260831152055 | 72 | 82 | 0.9 | 3.5 | 0.00 | 0.00 | 0.00 | 76 | 1012.8 |
| 20260831151620 | 72 | 47 | 0.9 | 3.5 | 0.00 | 0.00 | 0.00 | 76 | 1012.7 |
| 20260831151051 | 72 | 0 | 0.0 | 2.6 | 0.00 | 0.00 | 0.00 | 78 | 1012.7 |
| 20260831150554 | 71 | 0 | 0.0 | 2.6 | 0.00 | 0.00 | 0.00 | 79 | 1012.7 |
| 20260831150104 | 71 | 0 | 0.0 | 0.0 | 0.00 | 0.00 | 0.00 | 82 | 1012.7 |
| 20260831145551 | 70 | 0 | 0.0 | 0.0 | 0.00 | 0.00 | 0.00 | 84 | 1012.7 |
| 20260831145054 | 69 | 0 | 0.0 | 0.0 | 0.00 | 0.00 | 0.00 | 85 | 1012.7 |
| 20260831144601 | 68 | 0 | 0.0 | 0.0 | 0.00 | 0.00 | 0.00 | 86 | 1012.6 |
| 20260831144055 | 68 | 0 | 0.0 | 0.0 | 0.00 | 0.00 | 0.00 | 87 | 1012.5 |
| 20260831143555 | 67 | 0 | 0.0 | 0.0 | 0.00 | 0.00 | 0.00 | 88 | 1012.5 |
| 20260831143101 | 67 | 0 | 0.0 | 0.0 | 0.00 | 0.00 | 0.00 | 88 | 1012.4 |
| 20260831142556 | 66 | 0 | 0.0 | 0.0 | 0.00 | 0.00 | 0.00 | 88 | 1012.3 |
| 20260831142055 | 66 | 0 | 0.0 | 0.0 | 0.00 | 0.00 | 0.00 | 88 | 1012.3 |
| 20260831141607 | 65 | 0 | 0.0 | 0.0 | 0.00 | 0.00 | 0.00 | 89 | 1012.2 |
| 20260831141053 | 65 | 0 | 0.0 | 0.0 | 0.00 | 0.00 | 0.00 | 89 | 1012.1 |
| 20260831140552 | 65 | 0 | 0.0 | 0.0 | 0.00 | 0.00 | 0.00 | 89 | 1012.0 |
| 20260831135553 | 65 | 0 | 0.0 | 0.0 | 0.00 | 0.00 | 0.00 | 89 | 1011.8 |
| 20260831135056 | 65 | 0 | 0.0 | 0.0 | 0.00 | 0.00 | 0.00 | 88 | 1011.7 |
| 20260831134600 | 65 | 0 | 0.0 | 0.0 | 0.00 | 0.00 | 0.00 | 88 | 1011.6 |
| 20260831134052 | 65 | 0 | 0.0 | 0.0 | 0.00 | 0.00 | 0.00 | 88 | 1011.7 |
| 20260831133555 | 65 | 0 | 0.0 | 0.0 | 0.00 | 0.00 | 0.00 | 88 | 1011.7 |
| 20260831133058 | 65 | 0 | 0.0 | 0.0 | 0.00 | 0.00 | 0.00 | 88 | 1011.6 |
| 20260831132556 | 65 | 0 | 0.0 | 0.0 | 0.00 | 0.00 | 0.00 | 89 | 1011.5 |
| 20260831132055 | 65 | 0 | 0.0 | 0.0 | 0.00 | 0.00 | 0.00 | 88 | 1011.5 |
| 20260831131601 | 65 | 0 | 0.0 | 0.9 | 0.00 | 0.00 | 0.00 | 88 | 1011.6 |
| 20260831131054 | 65 | 0 | 0.0 | 1.7 | 0.00 | 0.00 | 0.00 | 88 | 1011.7 |
| 20260831130557 | 65 | 0 | 0.0 | 1.7 | 0.00 | 0.00 | 0.00 | 88 | 1011.6 |
| 20260831130111 | 65 | 0 | 0.0 | 0.0 | 0.00 | 0.00 | 0.00 | 88 | 1011.5 |
| 20260831125552 | 65 | 0 | 0.0 | 0.0 | 0.00 | 0.00 | 0.00 | 88 | 1011.5 |
| 20260831125056 | 65 | 0 | 0.0 | 0.0 | 0.00 | 0.00 | 0.00 | 88 | 1011.5 |
| 20260831124610 | 65 | 0 | 0.0 | 0.0 | 0.00 | 0.00 | 0.00 | 88 | 1011.4 |
| 20260831124056 | 65 | 0 | 0.0 | 0.0 | 0.00 | 0.00 | 0.00 | 88 | 1011.4 |
| 20260831123555 | 65 | 0 | 0.0 | 0.9 | 0.00 | 0.00 | 0.00 | 88 | 1011.4 |
| 20260831123109 | 65 | 0 | 0.0 | 1.7 | 0.00 | 0.00 | 0.00 | 88 | 1011.4 |
| 20260831122559 | 65 | 0 | 0.0 | 1.7 | 0.00 | 0.00 | 0.00 | 88 | 1011.4 |
| 20260831122055 | 66 | 349 | 0.0 | 2.6 | 0.00 | 0.00 | 0.00 | 88 | 1011.3 |
| 20260831121609 | 66 | 0 | 0.0 | 2.6 | 0.00 | 0.00 | 0.00 | 88 | 1011.3 |
| 20260831121051 | 66 | 341 | 0.0 | 0.9 | 0.00 | 0.00 | 0.00 | 88 | 1011.3 |
| 20260831120552 | 66 | 0 | 0.0 | 0.9 | 0.00 | 0.00 | 0.00 | 87 | 1011.3 |
| 20260831120101 | 66 | 0 | 0.0 | 0.9 | 0.00 | 0.00 | 0.00 | 87 | 1011.3 |
| 20260831115551 | 66 | 0 | 0.0 | 0.0 | 0.00 | 0.00 | 0.00 | 87 | 1011.3 |
| 20260831115051 | 66 | 0 | 0.0 | 0.0 | 0.00 | 0.00 | 0.00 | 87 | 1011.3 |
| 20260831114608 | 66 | 0 | 0.0 | 0.0 | 0.00 | 0.00 | 0.00 | 87 | 1011.3 |
| 20260831114056 | 66 | 0 | 0.0 | 1.7 | 0.00 | 0.00 | 0.00 | 87 | 1011.2 |
| 20260831113556 | 66 | 0 | 0.0 | 1.7 | 0.00 | 0.00 | 0.00 | 87 | 1011.2 |
| 20260831113105 | 66 | 0 | 0.0 | 1.7 | 0.00 | 0.00 | 0.00 | 87 | 1011.2 |
| 20260831112556 | 66 | 0 | 0.0 | 2.6 | 0.00 | 0.00 | 0.00 | 87 | 1011.2 |